• In Netherlands
  • List of Countries
  • For 7 days
  • Water Temperature
  • Satellite Maps
  • Weather Map
  • Weather Widgets
  • user-avatar
    Login

    Hourly Weather Andora

    Today, 26 April, Wednesday

    Time Temperature Precipitation Wind Pressure Humidity
    00:00 +5°C° 1.1 mm 1 mps 617 mmHg 98%
    01:00 +5°C° 0.5 mm 1 mps 617 mmHg 98%
    02:00 +5°C° 0.5 mm 1 mps 617 mmHg 97%
    03:00 +4°C° 0.5 mm 1 mps 617 mmHg 97%
    04:00 +4°C° 0.2 mm 1 mps 617 mmHg 97%
    05:00 +4°C° 0.2 mm 1 mps 617 mmHg 97%
    06:00 +4°C° 0.2 mm 1 mps 617 mmHg 96%
    07:00 +3°C° 0.2 mm 2 mps 618 mmHg 93%
    08:00 +3°C° 0.2 mm 2 mps 618 mmHg 89%
    09:00 +4°C° 0.2 mm 2 mps 619 mmHg 86%
    10:00 +4°C° 0.3 mm 2 mps 619 mmHg 82%
    11:00 +4°C° 0.3 mm 2 mps 619 mmHg 78%
    12:00 +4°C° 0.3 mm 3 mps 619 mmHg 75%
    13:00 +4°C° 0.4 mm 3 mps 619 mmHg 74%
    14:00 +4°C° 0.4 mm 3 mps 619 mmHg 73%
    15:00 +4°C° 0.4 mm 3 mps 619 mmHg 72%
    16:00 +4°C° 0.5 mm 2 mps 619 mmHg 77%
    17:00 +3°C° 0.5 mm 2 mps 619 mmHg 81%
    18:00 +2°C° 0.5 mm 2 mps 619 mmHg 86%
    19:00 +1°C° 1.3 mm 2 mps 619 mmHg 88%
    20:00 -1°C° 1.3 mm 2 mps 619 mmHg 91%
    21:00 -2°C° 1.3 mm 3 mps 619 mmHg 94%
    22:00 -2°C° 1 mm 2 mps 619 mmHg 94%
    23:00 -3°C° 1 mm 2 mps 619 mmHg 94%

    Tomorrow, 27 April, Thursday

    Time Temperature Precipitation Wind Pressure Humidity
    00:00 -3°C° 1 mm 2 mps 619 mmHg 94%
    01:00 -3°C° 1 mm 2 mps 619 mmHg 94%
    02:00 -4°C° 1 mm 2 mps 618 mmHg 94%
    03:00 -4°C° 1 mm 2 mps 618 mmHg 94%
    04:00 -4°C° 0.5 mm 2 mps 618 mmHg 94%
    05:00 -4°C° 0.5 mm 2 mps 618 mmHg 93%
    06:00 -4°C° 0.5 mm 2 mps 618 mmHg 92%
    07:00 -4°C° 0.3 mm 2 mps 619 mmHg 88%
    08:00 -4°C° 0.3 mm 3 mps 619 mmHg 84%
    09:00 -2°C° 0.3 mm 3 mps 620 mmHg 80%
    10:00 -1°C° 0.1 mm 3 mps 620 mmHg 77%
    11:00 0°C° 0.1 mm 3 mps 620 mmHg 74%
    12:00 +1°C° 0.1 mm 3 mps 621 mmHg 71%
    13:00 +1°C° 0.2 mm 3 mps 621 mmHg 71%
    14:00 +1°C° 0.2 mm 3 mps 620 mmHg 71%
    15:00 +1°C° 0.2 mm 3 mps 620 mmHg 71%
    16:00 0°C° 0.1 mm 3 mps 620 mmHg 74%
    17:00 -1°C° 0.1 mm 3 mps 620 mmHg 77%
    18:00 -2°C° 0.1 mm 3 mps 620 mmHg 79%
    19:00 -4°C° 0 mm 3 mps 620 mmHg 80%
    20:00 -6°C° 0 mm 3 mps 621 mmHg 81%
    21:00 -7°C° 0 mm 3 mps 621 mmHg 83%
    22:00 -7°C° 0 mm 3 mps 621 mmHg 82%
    23:00 -8°C° 0 mm 3 mps 621 mmHg 81%

    Day after tomorrow, 28 April, Friday

    Time Temperature Precipitation Wind Pressure Humidity
    00:00 -8°C° 0 mm 3 mps 621 mmHg 81%
    01:00 -8°C° 0 mm 3 mps 621 mmHg 81%
    02:00 -8°C° 0 mm 3 mps 620 mmHg 81%
    03:00 -7°C° 0 mm 2 mps 620 mmHg 81%
    04:00 -7°C° 0 mm 2 mps 620 mmHg 79%
    05:00 -6°C° 0 mm 2 mps 621 mmHg 78%
    06:00 -6°C° 0 mm 2 mps 621 mmHg 76%
    07:00 -4°C° 0 mm 2 mps 622 mmHg 71%
    08:00 -1°C° 0 mm 2 mps 623 mmHg 65%
    09:00 +2°C° 0 mm 2 mps 624 mmHg 60%
    10:00 +3°C° 0 mm 2 mps 624 mmHg 59%
    11:00 +5°C° 0 mm 1 mps 624 mmHg 58%
    12:00 +7°C° 0 mm 1 mps 624 mmHg 57%
    13:00 +7°C° 0 mm 1 mps 624 mmHg 58%
    14:00 +7°C° 0 mm 1 mps 623 mmHg 58%
    15:00 +7°C° 0 mm 1 mps 623 mmHg 58%
    16:00 +6°C° 0 mm 1 mps 623 mmHg 63%
    17:00 +5°C° 0 mm 1 mps 622 mmHg 68%
    18:00 +4°C° 0 mm 1 mps 622 mmHg 73%
    19:00 +2°C° 0 mm 1 mps 621 mmHg 80%
    20:00 -1°C° 0 mm 1 mps 620 mmHg 86%
    21:00 -4°C° 0 mm 1 mps 620 mmHg 93%
    22:00 -4°C° 0 mm 1 mps 619 mmHg 93%
    23:00 -4°C° 0 mm 1 mps 619 mmHg 93%

    29 April, Saturday

    Time Temperature Precipitation Wind Pressure Humidity
    00:00 -4°C° 0 mm 1 mps 619 mmHg 93%
    01:00 -4°C° 0 mm 1 mps 619 mmHg 92%
    02:00 -4°C° 0 mm 1 mps 619 mmHg 91%
    03:00 -4°C° 0 mm 1 mps 618 mmHg 90%
    04:00 -2°C° 0 mm 1 mps 619 mmHg 86%
    05:00 -1°C° 0 mm 1 mps 620 mmHg 83%
    06:00 0°C° 0 mm 1 mps 620 mmHg 80%
    07:00 +2°C° 0 mm 1 mps 621 mmHg 74%
    08:00 +4°C° 0 mm 2 mps 622 mmHg 67%
    09:00 +6°C° 0 mm 2 mps 622 mmHg 60%
    10:00 +7°C° 0 mm 2 mps 622 mmHg 58%
    11:00 +8°C° 0 mm 3 mps 622 mmHg 56%
    12:00 +9°C° 0 mm 3 mps 623 mmHg 53%
    13:00 +8°C° 0 mm 3 mps 622 mmHg 58%
    14:00 +8°C° 0 mm 3 mps 622 mmHg 62%
    15:00 +8°C° 0 mm 3 mps 621 mmHg 67%
    16:00 +7°C° 0 mm 3 mps 621 mmHg 73%
    17:00 +5°C° 0 mm 3 mps 620 mmHg 79%
    18:00 +4°C° 0 mm 2 mps 620 mmHg 86%
    19:00 +4°C° 0 mm 2 mps 620 mmHg 88%
    20:00 +3°C° 0 mm 2 mps 620 mmHg 90%
    21:00 +2°C° 0 mm 2 mps 620 mmHg 92%
    22:00 +2°C° 0 mm 2 mps 619 mmHg 92%
    23:00 +2°C° 0 mm 2 mps 619 mmHg 92%

    30 April, Sunday

    Time Temperature Precipitation Wind Pressure Humidity
    00:00 +2°C° 0 mm 2 mps 619 mmHg 92%
    01:00 +2°C° 0 mm 2 mps 619 mmHg 92%
    02:00 +2°C° 0 mm 2 mps 618 mmHg 92%
    03:00 +2°C° 0 mm 2 mps 618 mmHg 92%
    04:00 +2°C° 0.1 mm 2 mps 618 mmHg 91%
    05:00 +3°C° 0.1 mm 2 mps 618 mmHg 90%
    06:00 +3°C° 0.1 mm 2 mps 619 mmHg 89%
    07:00 +4°C° 0.2 mm 2 mps 619 mmHg 86%
    08:00 +6°C° 0.2 mm 2 mps 620 mmHg 83%
    09:00 +7°C° 0.2 mm 3 mps 620 mmHg 81%
    10:00 +8°C° 0.2 mm 3 mps 620 mmHg 78%
    11:00 +8°C° 0.2 mm 3 mps 620 mmHg 75%
    12:00 +9°C° 0.2 mm 3 mps 620 mmHg 72%
    13:00 +9°C° 0.2 mm 3 mps 620 mmHg 71%
    14:00 +10°C° 0.2 mm 3 mps 620 mmHg 70%
    15:00 +10°C° 0.2 mm 3 mps 620 mmHg 69%
    16:00 +9°C° 0.3 mm 3 mps 620 mmHg 74%
    17:00 +7°C° 0.3 mm 3 mps 620 mmHg 79%
    18:00 +5°C° 0.3 mm 3 mps 620 mmHg 85%
    19:00 +5°C° 0.1 mm 2 mps 621 mmHg 88%
    20:00 +3°C° 0.1 mm 2 mps 621 mmHg 91%
    21:00 +2°C° 0.1 mm 1 mps 621 mmHg 95%
    22:00 +2°C° 0 mm 1 mps 621 mmHg 94%
    23:00 +1°C° 0 mm 2 mps 622 mmHg 94%

    1 May, Monday

    Time Temperature Precipitation Wind Pressure Humidity
    00:00 +1°C° 0 mm 2 mps 622 mmHg 93%
    01:00 -1°C° 0 mm 2 mps 622 mmHg 93%
    02:00 -1°C° 0 mm 2 mps 622 mmHg 93%
    03:00 -2°C° 0 mm 2 mps 622 mmHg 92%
    04:00 -1°C° 0 mm 2 mps 623 mmHg 90%
    05:00 -1°C° 0 mm 2 mps 624 mmHg 87%
    06:00 +1°C° 0 mm 1 mps 624 mmHg 85%
    07:00 +4°C° 0 mm 1 mps 625 mmHg 76%
    08:00 +6°C° 0 mm 1 mps 627 mmHg 68%
    09:00 +8°C° 0 mm 1 mps 628 mmHg 60%
    10:00 +9°C° 0 mm 1 mps 628 mmHg 56%
    11:00 +10°C° 0 mm 2 mps 628 mmHg 53%
    12:00 +12°C° 0 mm 2 mps 629 mmHg 49%
    13:00 +12°C° 0 mm 2 mps 629 mmHg 49%
    14:00 +13°C° 0 mm 2 mps 629 mmHg 49%
    15:00 +13°C° 0 mm 2 mps 628 mmHg 48%
    16:00 +12°C° 0 mm 2 mps 628 mmHg 56%
    17:00 +11°C° 0 mm 1 mps 628 mmHg 63%
    18:00 +10°C° 0 mm 1 mps 627 mmHg 70%
    19:00 +7°C° 0 mm 1 mps 627 mmHg 77%
    20:00 +5°C° 0 mm 1 mps 626 mmHg 83%
    21:00 +3°C° 0 mm 1 mps 626 mmHg 90%
    22:00 +3°C° 0 mm 1 mps 626 mmHg 90%
    23:00 +2°C° 0 mm 1 mps 626 mmHg 90%
    Show more